Location: Kernascl�den
(48.0062°N, 3.3198°W)
Time: 12:00:37
(UTC+00:00)

MOS 1 Rocket - Pass Details

Date: 21 January 2021
Orbit: 614 x 830 km, 97.4° (Epoch: 06 March)

Event Time Altitude Azimuth Distance (km) Brightness Sun altitude
Exits shadow 17:50:47 - 22° (NNE) 2,893 6.1 -9.1°
Reaches altitude 10° 17:53:09 10° 33° (NNE) 2,000 5.2 -9.5°
Maximum altitude 17:56:56 29° 94° (E) 1,130 3.9 -10.1°
Drops below altitude 10° 18:00:41 10° 156° (SSE) 1,973 5.6 -10.7°
Sets 18:03:05 0° 167° (SSE) 2,882 6.6 -11.0°
